Weather History for Tekamah, NE

Change the Weather History Date:

Monday, January 10, 2011

  Actual Average Record
Temperature  
Mean Temperature 16 °F -  
Max Temperature 23 °F 26 °F 61 °F (2012)
Min Temperature 9 °F 5 °F -22 °F (1982)
Degree Days  
Heating Degree Days 48    
Moisture  
Dew Point 15 °F    
Average Humidity 86    
Maximum Humidity 93    
Minimum Humidity 76    
Precipitation  
Precipitation 0.31 in - - ()
Sea Level Pressure  
Sea Level Pressure 30.23 in    
Wind  
Wind Speed 8 mph (North)    
Max Wind Speed 24 mph    
Max Gust Speed 29 mph    
Visibility 2 miles    
Events Fog , Snow    
Averages and records for this station are not official NWS values.
T = Trace of Precipitation, MM = Missing Value Source: NWS Daily Summary

Daily Weather History Graph

Daily Weather History Graph

Search for Another Location

Airport:

Trip Planner

Search our weather history database for the weather conditions in past years. The results will help you decide how hot, cold, wet, or windy it might be!

Date:

Astronomy

Jan. 10, 2011 Rise Set
Actual Time 7:51 AM CST 5:13 PM CST
Civil Twilight 7:20 AM CST 5:44 PM CST
Nautical Twilight 6:45 AM CST 6:18 PM CST
Astronomical Twilight 6:12 AM CST 6:52 PM CST
Moon 10:41 AM CST (1/10) 11:47 PM CST (1/10)
Length of Visible Light 10h 23m
Length of Day
9h 21m
Waxing Crescent, 34% of the Moon is Illuminated
Jan 10
Waxing Crescent
Jan 12
First Quarter
Jan 19
Full
Jan 26
Last Quarter
Feb 2
New

Hourly Weather History & Observations

Time (CST) Temp. Windchill Dew Point Humidity Pressure Visibility Wind Dir Wind Speed Gust Speed Precip Events Conditions
12:54 AM 19.9 °F 9.3 °F 17.1 °F 89% 30.22 in 1.0 mi East 9.2 mph - 0.04 in Snow Light Snow
1:54 AM 19.0 °F 7.5 °F 16.0 °F 88% 30.22 in 1.0 mi East 10.4 mph - 0.01 in Snow Light Snow
2:54 AM 19.9 °F 8.6 °F 17.1 °F 89% 30.24 in 1.0 mi East 10.4 mph - 0.02 in Snow Light Snow
3:02 AM 19.4 °F 7.9 °F 17.6 °F 93% 30.20 in 1.0 mi ESE 10.4 mph - 0.00 in Snow Light Snow
3:54 AM 19.9 °F 9.3 °F 17.1 °F 89% 30.24 in 1.0 mi ESE 9.2 mph - 0.00 in Snow Light Snow
4:20 AM 19.4 °F 11.5 °F 17.6 °F 93% 30.20 in 0.8 mi ESE 5.8 mph - 0.01 in Snow Light Snow
4:36 AM 19.4 °F 11.5 °F 17.6 °F 93% 30.20 in 1.0 mi ESE 5.8 mph - 0.02 in Snow Light Snow
4:54 AM 19.9 °F 12.1 °F 17.1 °F 89% 30.24 in 1.0 mi ESE 5.8 mph - 0.03 in Snow Light Snow
5:05 AM 19.4 °F 12.8 °F 17.6 °F 93% 30.20 in 1.2 mi ESE 4.6 mph - 0.00 in Snow Light Snow
5:18 AM 19.4 °F 12.8 °F 17.6 °F 93% 30.20 in 1.2 mi ESE 4.6 mph - 0.01 in Snow Light Snow
5:32 AM 19.4 °F 14.3 °F 17.6 °F 93% 30.20 in 1.0 mi ESE 3.5 mph - 0.02 in Snow Light Snow
5:45 AM 19.4 °F 14.3 °F 17.6 °F 93% 30.20 in 1.0 mi ESE 3.5 mph - 0.02 in Snow Light Snow
5:54 AM 19.9 °F 14.9 °F 17.1 °F 89% 30.24 in 1.0 mi East 3.5 mph - 0.03 in Snow Light Snow
6:03 AM 19.4 °F 14.3 °F 17.6 °F 93% 30.20 in 0.8 mi ESE 3.5 mph - 0.01 in Snow Light Snow
6:49 AM 19.4 °F 14.3 °F 17.6 °F 93% 30.20 in 1.0 mi East 3.5 mph - 0.05 in Snow Light Snow
6:50 AM 19.9 °F 14.9 °F 17.1 °F 89% 30.24 in 1.0 mi East 3.5 mph - 0.05 in Snow Light Snow
7:08 AM 19.4 °F - 17.6 °F 93% 30.21 in 1.2 mi Calm Calm - 0.01 in Snow Light Snow
7:54 AM 19.9 °F - 17.1 °F 89% 30.25 in 1.2 mi Calm Calm - 0.03 in Snow Light Snow
7:59 AM 19.4 °F - 17.6 °F 93% 30.21 in 0.8 mi Calm Calm - 0.00 in Snow Light Snow
8:39 AM 19.4 °F - 17.6 °F 93% 30.22 in 0.8 mi Calm Calm - 0.02 in Snow Light Snow
8:51 AM 19.4 °F - 17.6 °F 93% 30.22 in 0.5 mi Calm Calm - 0.03 in Fog , Snow Light Snow
8:54 AM 19.9 °F 14.9 °F 17.1 °F 89% 30.26 in 0.5 mi NE 3.5 mph - 0.03 in Fog , Snow Light Snow
9:16 AM 21.2 °F - 17.6 °F 86% 30.23 in 1.0 mi Calm Calm - 0.00 in Snow Light Snow
9:26 AM 21.2 °F 16.4 °F 17.6 °F 86% 30.22 in 0.8 mi ENE 3.5 mph - 0.01 in Snow Light Snow
9:29 AM 21.2 °F 16.4 °F 17.6 °F 86% 30.22 in 1.0 mi ENE 3.5 mph - 0.01 in Snow Light Snow
9:45 AM 21.2 °F - 17.6 °F 86% 30.23 in 0.8 mi Calm Calm - 0.01 in Snow Light Snow
9:54 AM 21.0 °F - 18.0 °F 88% 30.26 in 1.2 mi Calm Calm - 0.01 in Snow Light Snow
10:54 AM 21.9 °F - 18.0 °F 85% 30.26 in 1.5 mi Calm Calm - 0.01 in Snow Light Snow
11:07 AM 21.2 °F - 17.6 °F 86% 30.22 in 0.5 mi Calm Calm - 0.01 in Fog , Snow Snow
11:30 AM 23.0 °F - 19.4 °F 86% 30.21 in 0.5 mi Calm Calm - 0.02 in Fog , Snow Snow
11:49 AM 23.0 °F - 19.4 °F 86% 30.20 in 0.8 mi Calm Calm - 0.03 in Snow Light Snow
11:54 AM 21.9 °F - 19.0 °F 89% 30.24 in 0.8 mi Calm Calm - 0.03 in Snow Light Snow
12:23 PM 23.0 °F 18.4 °F 19.4 °F 86% 30.19 in 1.2 mi North 3.5 mph - 0.01 in Snow Light Snow
12:37 PM 23.0 °F 18.4 °F 19.4 °F 86% 30.18 in 2.0 mi North 3.5 mph - 0.01 in Snow Light Snow
12:51 PM 23.0 °F 18.4 °F 19.4 °F 86% 30.18 in 1.8 mi North 3.5 mph - 0.01 in Snow Light Snow
12:54 PM 23.0 °F 18.4 °F 19.0 °F 85% 30.21 in 1.8 mi North 3.5 mph - 0.01 in Snow Light Snow
1:12 PM 23.0 °F 18.4 °F 19.4 °F 86% 30.17 in 1.8 mi NNW 3.5 mph - 0.00 in Snow Light Snow
1:21 PM 23.0 °F 17.0 °F 19.4 °F 86% 30.17 in 2.0 mi North 4.6 mph - 0.00 in Snow Light Snow
1:32 PM 23.0 °F 18.4 °F 19.4 °F 86% 30.17 in 1.8 mi North 3.5 mph - 0.00 in Snow Light Snow
1:54 PM 21.9 °F 15.7 °F 19.0 °F 89% 30.20 in 1.5 mi NNW 4.6 mph - 0.00 in Snow Light Snow
2:26 PM 21.2 °F 12.6 °F 17.6 °F 86% 30.17 in 1.0 mi NNW 6.9 mph - 0.01 in Snow Light Snow
2:54 PM 21.9 °F 13.4 °F 19.0 °F 89% 30.21 in 1.2 mi North 6.9 mph - 0.01 in Snow Light Snow
3:09 PM 21.2 °F 12.6 °F 17.6 °F 86% 30.18 in 2.0 mi North 6.9 mph - 0.00 in Snow Light Snow
3:16 PM 21.2 °F 13.6 °F 17.6 °F 86% 30.18 in 1.8 mi North 5.8 mph - 0.00 in Snow Light Snow
3:33 PM 21.2 °F 12.6 °F 17.6 °F 86% 30.19 in 2.0 mi North 6.9 mph - 0.00 in Snow Light Snow
3:54 PM 21.9 °F 14.5 °F 19.0 °F 89% 30.23 in 2.0 mi NNW 5.8 mph - 0.00 in Snow Light Snow
4:17 PM 21.2 °F 10.9 °F 17.6 °F 86% 30.20 in 1.5 mi NW 9.2 mph - 0.00 in Snow Light Snow
4:54 PM 18.0 °F 3.6 °F 14.0 °F 84% 30.26 in 1.5 mi NW 15.0 mph - 0.00 in Snow Light Snow
5:03 PM 17.6 °F 2.2 °F 12.2 °F 79% 30.22 in 2.0 mi NW 17.3 mph - 0.00 in Snow Light Snow
5:17 PM 17.6 °F 1.3 °F 12.2 °F 79% 30.22 in 3.0 mi NW 19.6 mph - 0.00 in Snow Light Snow
5:26 PM 17.6 °F 1.3 °F 12.2 °F 79% 30.22 in 4.0 mi NW 19.6 mph - 0.00 in Snow Light Snow
5:54 PM 15.1 °F -1.6 °F 10.0 °F 80% 30.27 in 6.0 mi NW 18.4 mph 26.5 mph 0.00 in Snow Light Snow
6:54 PM 14.0 °F -3.0 °F 8.1 °F 77% 30.29 in 7.0 mi NW 18.4 mph - 0.00 in   Overcast
7:52 PM 12.2 °F -7.5 °F 6.8 °F 79% 30.24 in 2.0 mi NW 24.2 mph - 0.00 in Snow Light Snow
7:54 PM 12.9 °F -5.7 °F 7.0 °F 77% 30.29 in 2.0 mi NW 21.9 mph - 0.00 in Snow Light Snow
8:12 PM 12.2 °F -7.1 °F 6.8 °F 79% 30.25 in 1.8 mi NW 23.0 mph - 0.00 in Snow Light Snow
8:45 PM 12.2 °F -7.1 °F 6.8 °F 79% 30.26 in 3.0 mi NW 23.0 mph - 0.00 in Snow Light Snow
8:54 PM 12.0 °F -6.9 °F 7.0 °F 80% 30.31 in 3.0 mi NNW 21.9 mph - 0.00 in Snow Light Snow
9:02 PM 12.2 °F -6.7 °F 6.8 °F 79% 30.26 in 2.5 mi NW 21.9 mph 27.6 mph 0.00 in Snow Light Snow
9:12 PM 10.4 °F -8.6 °F 6.8 °F 85% 30.26 in 2.5 mi NW 20.7 mph - 0.00 in Snow Light Snow
9:31 PM 10.4 °F -8.6 °F 5.0 °F 79% 30.26 in 4.0 mi NW 20.7 mph - 0.00 in Snow Light Snow
9:54 PM 10.0 °F -9.1 °F 5.0 °F 80% 30.31 in 6.0 mi NW 20.7 mph - 0.00 in   Haze
10:54 PM 10.0 °F -8.6 °F 3.9 °F 76% 30.33 in 9.0 mi NW 19.6 mph 27.6 mph N/A   Overcast
11:54 PM 9.0 °F -11.4 °F 3.0 °F 77% 30.33 in 6.0 mi NNW 23.0 mph 28.8 mph N/A Snow Blowing Snow